contact:dominique.lefevre@mio.osupytheas.fr, maurice.libes@osupytheas.fr, didier.mallarino@osupytheas.fr
Project:EMSO http://www.emso-fr.org/EMSO-France
Depth: 2436.0 m
Title:EMSO Ligure Ouest : Data MII capteur MICROCAT
DateTime_Computer,Latitude,Longitude,Temperature,Conductivity,Pressure,DateTime_Instrument
DateTime_Computer,Latitude,Longitude,degC,S m-1,dbar,DateTime_Instrument
2022-01-04T00:00:47Z,42.805,6.029,13.3006,4.60049,2469.83,2022-1-04T02:02:17Z
2022-01-04T00:03:50Z,42.805,6.029,13.3006,4.60050,2469.806,2022-1-04T02:05:20Z
2022-01-04T00:06:53Z,42.805,6.029,13.3005,4.60049,2469.867,2022-1-04T02:08:23Z
2022-01-04T00:09:57Z,42.805,6.029,13.3002,4.60064,2469.783,2022-1-04T02:11:27Z
2022-01-04T00:13:00Z,42.805,6.029,13.3005,4.60049,2469.867,2022-1-04T02:14:30Z
2022-01-04T00:16:03Z,42.805,6.029,13.3001,4.60053,2469.853,2022-1-04T02:17:33Z
2022-01-04T00:19:06Z,42.805,6.029,13.3004,4.60093,2469.83,2022-1-04T02:20:36Z
2022-01-04T00:22:09Z,42.805,6.029,13.3009,4.60069,2469.83,2022-1-04T02:23:39Z
2022-01-04T00:25:12Z,42.805,6.029,13.3011,4.60081,2469.844,2022-1-04T02:26:42Z
2022-01-04T00:28:15Z,42.805,6.029,13.3020,4.60069,2469.821,2022-1-04T02:29:45Z
2022-01-04T00:31:18Z,42.805,6.029,13.2996,4.60042,2469.806,2022-1-04T02:32:48Z
2022-01-04T00:34:21Z,42.805,6.029,13.3000,4.60052,2469.797,2022-1-04T02:35:52Z
2022-01-04T00:37:25Z,42.805,6.029,13.3004,4.60062,2469.806,2022-1-04T02:38:55Z
2022-01-04T00:40:28Z,42.805,6.029,13.3007,4.60059,2469.797,2022-1-04T02:41:58Z
2022-01-04T00:43:31Z,42.805,6.029,13.3003,4.60049,2469.806,2022-1-04T02:45:01Z
2022-01-04T00:46:34Z,42.805,6.029,13.3007,4.60059,2469.821,2022-1-04T02:48:04Z
2022-01-04T00:49:37Z,42.805,6.029,13.3000,4.60064,2469.821,2022-1-04T02:51:07Z
2022-01-04T00:52:40Z,42.805,6.029,13.3003,4.60045,2469.797,2022-1-04T02:54:10Z
2022-01-04T00:55:43Z,42.805,6.029,13.3008,4.60076,2469.76,2022-1-04T02:57:13Z
2022-01-04T00:58:46Z,42.805,6.029,13.3013,4.60072,2469.76,2022-1-04T03:00:16Z
2022-01-04T01:01:50Z,42.805,6.029,13.3005,4.60080,2469.773,2022-1-04T03:03:20Z
2022-01-04T01:04:53Z,42.805,6.029,13.3000,4.60062,2469.76,2022-1-04T03:06:23Z
2022-01-04T01:07:56Z,42.805,6.029,13.3000,4.60058,2469.773,2022-1-04T03:09:26Z
2022-01-04T01:10:59Z,42.805,6.029,13.3005,4.60072,2469.797,2022-1-04T03:12:29Z
2022-01-04T01:14:02Z,42.805,6.029,13.2996,4.60050,2469.76,2022-1-04T03:15:32Z
2022-01-04T01:17:05Z,42.805,6.029,13.2998,4.60046,2469.806,2022-1-04T03:18:35Z
2022-01-04T01:20:08Z,42.805,6.029,13.2999,4.60059,2469.76,2022-1-04T03:21:38Z
2022-01-04T01:23:11Z,42.805,6.029,13.3013,4.60062,2469.76,2022-1-04T03:24:41Z
2022-01-04T01:26:14Z,42.805,6.029,13.3004,4.60047,2469.713,2022-1-04T03:27:45Z
2022-01-04T01:29:18Z,42.805,6.029,13.2999,4.60048,2469.76,2022-1-04T03:30:48Z
2022-01-04T01:32:21Z,42.805,6.029,13.3006,4.60064,2469.737,2022-1-04T03:33:51Z
2022-01-04T01:35:24Z,42.805,6.029,13.3004,4.60062,2469.737,2022-1-04T03:36:54Z
2022-01-04T01:38:27Z,42.805,6.029,13.3006,4.60069,2469.737,2022-1-04T03:39:57Z
2022-01-04T01:41:30Z,42.805,6.029,13.3011,4.60050,2469.773,2022-1-04T03:43:00Z
2022-01-04T01:44:33Z,42.805,6.029,13.3006,4.60064,2469.76,2022-1-04T03:46:03Z
2022-01-04T01:47:36Z,42.805,6.029,13.3004,4.60054,2469.773,2022-1-04T03:49:06Z
2022-01-04T01:50:39Z,42.805,6.029,13.2999,4.60046,2469.727,2022-1-04T03:52:09Z
2022-01-04T01:53:43Z,42.805,6.029,13.3011,4.60067,2469.75,2022-1-04T03:55:13Z
2022-01-04T01:56:46Z,42.805,6.029,13.3005,4.60054,2469.737,2022-1-04T03:58:16Z
2022-01-04T01:59:49Z,42.805,6.029,13.3011,4.60062,2469.75,2022-1-04T04:01:19Z
2022-01-04T02:02:52Z,42.805,6.029,13.3005,4.60049,2469.727,2022-1-04T04:04:22Z
2022-01-04T02:05:55Z,42.805,6.029,13.3002,4.60048,2469.727,2022-1-04T04:07:25Z
2022-01-04T02:08:58Z,42.805,6.029,13.3000,4.60049,2469.704,2022-1-04T04:10:28Z
2022-01-04T02:12:01Z,42.805,6.029,13.3007,4.60059,2469.704,2022-1-04T04:13:31Z
2022-01-04T02:15:04Z,42.805,6.029,13.3009,4.60049,2469.737,2022-1-04T04:16:34Z
2022-01-04T02:18:07Z,42.805,6.029,13.3006,4.60046,2469.713,2022-1-04T04:19:38Z
2022-01-04T02:21:11Z,42.805,6.029,13.3009,4.60062,2469.68,2022-1-04T04:22:41Z
2022-01-04T02:24:14Z,42.805,6.029,13.3007,4.60062,2469.69,2022-1-04T04:25:44Z
2022-01-04T02:27:17Z,42.805,6.029,13.3006,4.60054,2469.713,2022-1-04T04:28:47Z
2022-01-04T02:30:20Z,42.805,6.029,13.3011,4.60051,2469.704,2022-1-04T04:31:50Z
2022-01-04T02:33:23Z,42.805,6.029,13.3009,4.60041,2469.727,2022-1-04T04:34:53Z
2022-01-04T02:36:26Z,42.805,6.029,13.3006,4.60049,2469.713,2022-1-04T04:37:56Z
2022-01-04T02:39:29Z,42.805,6.029,13.3002,4.60041,2469.737,2022-1-04T04:40:59Z
2022-01-04T02:42:32Z,42.805,6.029,13.3003,4.60045,2469.69,2022-1-04T04:44:03Z
2022-01-04T02:45:36Z,42.805,6.029,13.3005,4.60055,2469.713,2022-1-04T04:47:06Z
2022-01-04T02:48:39Z,42.805,6.029,13.3001,4.60049,2469.727,2022-1-04T04:50:09Z
2022-01-04T02:51:42Z,42.805,6.029,13.3004,4.60050,2469.727,2022-1-04T04:53:12Z
2022-01-04T02:54:45Z,42.805,6.029,13.3008,4.60046,2469.75,2022-1-04T04:56:15Z
2022-01-04T02:57:48Z,42.805,6.029,13.3006,4.60047,2469.783,2022-1-04T04:59:18Z
2022-01-04T03:00:51Z,42.805,6.029,13.3012,4.60046,2469.713,2022-1-04T05:02:21Z
2022-01-04T03:03:54Z,42.805,6.029,13.3017,4.60067,2469.713,2022-1-04T05:05:24Z
2022-01-04T03:06:57Z,42.805,6.029,13.3005,4.60052,2469.737,2022-1-04T05:08:27Z
2022-01-04T03:10:00Z,42.805,6.029,13.3006,4.60046,2469.727,2022-1-04T05:11:31Z
2022-01-04T03:13:04Z,42.805,6.029,13.3005,4.60044,2469.75,2022-1-04T05:14:34Z
2022-01-04T03:16:07Z,42.805,6.029,13.3005,4.60045,2469.69,2022-1-04T05:17:37Z
2022-01-04T03:19:10Z,42.805,6.029,13.3002,4.60047,2469.704,2022-1-04T05:20:40Z
2022-01-04T03:22:13Z,42.805,6.029,13.3004,4.60059,2469.667,2022-1-04T05:23:43Z
2022-01-04T03:25:16Z,42.805,6.029,13.3011,4.60057,2469.704,2022-1-04T05:26:46Z
2022-01-04T03:28:19Z,42.805,6.029,13.3005,4.60049,2469.68,2022-1-04T05:29:49Z
2022-01-04T03:31:22Z,42.805,6.029,13.3008,4.60058,2469.75,2022-1-04T05:32:52Z
2022-01-04T03:34:25Z,42.805,6.029,13.3008,4.60040,2469.713,2022-1-04T05:35:55Z
2022-01-04T03:37:28Z,42.805,6.029,13.3009,4.60044,2469.704,2022-1-04T05:38:59Z
2022-01-04T03:40:32Z,42.805,6.029,13.3004,4.60052,2469.69,2022-1-04T05:42:02Z
2022-01-04T03:43:35Z,42.805,6.029,13.3009,4.60054,2469.667,2022-1-04T05:45:05Z
2022-01-04T03:46:38Z,42.805,6.029,13.3004,4.60077,2469.704,2022-1-04T05:48:08Z
2022-01-04T03:49:41Z,42.805,6.029,13.3015,4.60051,2469.69,2022-1-04T05:51:11Z
2022-01-04T03:52:44Z,42.805,6.029,13.3004,4.60046,2469.704,2022-1-04T05:54:14Z
2022-01-04T03:55:47Z,42.805,6.029,13.3008,4.60066,2469.68,2022-1-04T05:57:17Z
2022-01-04T03:58:50Z,42.805,6.029,13.3009,4.60049,2469.643,2022-1-04T06:00:20Z
2022-01-04T04:01:53Z,42.805,6.029,13.3004,4.60045,2469.69,2022-1-04T06:03:23Z
2022-01-04T04:04:57Z,42.805,6.029,13.3005,4.60044,2469.69,2022-1-04T06:06:27Z
2022-01-04T04:08:00Z,42.805,6.029,13.3010,4.60041,2469.75,2022-1-04T06:09:30Z
2022-01-04T04:11:03Z,42.805,6.029,13.3004,4.60041,2469.69,2022-1-04T06:12:33Z
2022-01-04T04:14:06Z,42.805,6.029,13.3006,4.60054,2469.75,2022-1-04T06:15:36Z
2022-01-04T04:17:09Z,42.805,6.029,13.3002,4.60039,2469.713,2022-1-04T06:18:39Z
2022-01-04T04:20:12Z,42.805,6.029,13.3000,4.60040,2469.713,2022-1-04T06:21:42Z
2022-01-04T04:23:15Z,42.805,6.029,13.3004,4.60055,2469.737,2022-1-04T06:24:45Z
2022-01-04T04:26:18Z,42.805,6.029,13.3002,4.60033,2469.713,2022-1-04T06:27:48Z
2022-01-04T04:29:21Z,42.805,6.029,13.3003,4.60044,2469.727,2022-1-04T06:30:52Z
2022-01-04T04:32:25Z,42.805,6.029,13.3006,4.60051,2469.727,2022-1-04T06:33:55Z
2022-01-04T04:35:28Z,42.805,6.029,13.3009,4.60049,2469.737,2022-1-04T06:36:58Z
2022-01-04T04:38:31Z,42.805,6.029,13.3004,4.60037,2469.75,2022-1-04T06:40:01Z
2022-01-04T04:41:34Z,42.805,6.029,13.3011,4.60043,2469.713,2022-1-04T06:43:04Z
2022-01-04T04:44:37Z,42.805,6.029,13.3000,4.60049,2469.75,2022-1-04T06:46:07Z
2022-01-04T04:47:40Z,42.805,6.029,13.3008,4.60038,2469.713,2022-1-04T06:49:10Z
2022-01-04T04:50:43Z,42.805,6.029,13.3002,4.60039,2469.713,2022-1-04T06:52:13Z
2022-01-04T04:53:46Z,42.805,6.029,13.3006,4.60041,2469.75,2022-1-04T06:55:17Z
2022-01-04T04:56:50Z,42.805,6.029,13.3006,4.60041,2469.727,2022-1-04T06:58:20Z
2022-01-04T04:59:53Z,42.805,6.029,13.3006,4.60041,2469.713,2022-1-04T07:01:23Z
2022-01-04T05:02:56Z,42.805,6.029,13.3004,4.60049,2469.75,2022-1-04T07:04:26Z
2022-01-04T05:05:59Z,42.805,6.029,13.2998,4.60039,2469.737,2022-1-04T07:07:29Z
2022-01-04T05:09:02Z,42.805,6.029,13.3014,4.60046,2469.737,2022-1-04T07:10:32Z
2022-01-04T05:12:05Z,42.805,6.029,13.3004,4.60061,2469.76,2022-1-04T07:13:35Z
2022-01-04T05:15:08Z,42.805,6.029,13.3009,4.60050,2469.773,2022-1-04T07:16:38Z
2022-01-04T05:18:11Z,42.805,6.029,13.3011,4.60058,2469.773,2022-1-04T07:19:41Z
2022-01-04T05:21:15Z,42.805,6.029,13.3000,4.60054,2469.737,2022-1-04T07:22:45Z
2022-01-04T05:24:18Z,42.805,6.029,13.3004,4.60045,2469.737,2022-1-04T07:25:48Z
2022-01-04T05:27:21Z,42.805,6.029,13.3005,4.60041,2469.76,2022-1-04T07:28:51Z
2022-01-04T05:30:24Z,42.805,6.029,13.3006,4.60052,2469.75,2022-1-04T07:31:54Z
2022-01-04T05:33:27Z,42.805,6.029,13.3009,4.60040,2469.76,2022-1-04T07:34:57Z
2022-01-04T05:36:30Z,42.805,6.029,13.3006,4.60050,2469.783,2022-1-04T07:38:00Z
2022-01-04T05:39:33Z,42.805,6.029,13.3005,4.60044,2469.783,2022-1-04T07:41:03Z
2022-01-04T05:42:36Z,42.805,6.029,13.3007,4.60077,2469.773,2022-1-04T07:44:06Z
2022-01-04T05:45:39Z,42.805,6.029,13.3006,4.60045,2469.783,2022-1-04T07:47:10Z
2022-01-04T05:48:43Z,42.805,6.029,13.3006,4.60039,2469.797,2022-1-04T07:50:13Z
2022-01-04T05:51:46Z,42.805,6.029,13.3008,4.60034,2469.806,2022-1-04T07:53:16Z
2022-01-04T05:54:49Z,42.805,6.029,13.3009,4.60039,2469.83,2022-1-04T07:56:19Z
2022-01-04T05:57:52Z,42.805,6.029,13.2997,4.60032,2469.844,2022-1-04T07:59:22Z
2022-01-04T06:00:55Z,42.805,6.029,13.3005,4.60034,2469.806,2022-1-04T08:02:25Z
2022-01-04T06:03:58Z,42.805,6.029,13.3004,4.60040,2469.821,2022-1-04T08:05:28Z
2022-01-04T06:07:01Z,42.805,6.029,13.3004,4.60032,2469.806,2022-1-04T08:08:31Z
2022-01-04T06:10:04Z,42.805,6.029,13.2998,4.60046,2469.83,2022-1-04T08:11:35Z
2022-01-04T06:13:08Z,42.805,6.029,13.3001,4.60029,2469.83,2022-1-04T08:14:38Z
2022-01-04T06:16:11Z,42.805,6.029,13.3002,4.60041,2469.844,2022-1-04T08:17:41Z
2022-01-04T06:19:14Z,42.805,6.029,13.3002,4.60034,2469.83,2022-1-04T08:20:44Z
2022-01-04T06:22:17Z,42.805,6.029,13.3002,4.60032,2469.844,2022-1-04T08:23:47Z
2022-01-04T06:25:20Z,42.805,6.029,13.3002,4.60043,2469.844,2022-1-04T08:26:50Z
2022-01-04T06:28:23Z,42.805,6.029,13.3004,4.60034,2469.853,2022-1-04T08:29:53Z
2022-01-04T06:31:26Z,42.805,6.029,13.3000,4.60041,2469.844,2022-1-04T08:32:56Z
2022-01-04T06:34:29Z,42.805,6.029,13.3002,4.60062,2469.83,2022-1-04T08:35:59Z
2022-01-04T06:37:32Z,42.805,6.029,13.3005,4.60070,2469.844,2022-1-04T08:39:03Z
2022-01-04T06:40:36Z,42.805,6.029,13.2999,4.60031,2469.83,2022-1-04T08:42:06Z
2022-01-04T06:43:39Z,42.805,6.029,13.2999,4.60037,2469.853,2022-1-04T08:45:09Z
2022-01-04T06:46:42Z,42.805,6.029,13.2997,4.60033,2469.876,2022-1-04T08:48:12Z
2022-01-04T06:49:45Z,42.805,6.029,13.3000,4.60031,2469.853,2022-1-04T08:51:15Z
2022-01-04T06:52:48Z,42.805,6.029,13.2997,4.60031,2469.9,2022-1-04T08:54:18Z
2022-01-04T06:55:51Z,42.805,6.029,13.3001,4.60036,2469.914,2022-1-04T08:57:21Z
2022-01-04T06:58:54Z,42.805,6.029,13.3003,4.60034,2469.853,2022-1-04T09:00:24Z
2022-01-04T07:01:57Z,42.805,6.029,13.3004,4.60041,2469.853,2022-1-04T09:03:28Z
2022-01-04T07:05:01Z,42.805,6.029,13.3006,4.60039,2469.853,2022-1-04T09:06:31Z
2022-01-04T07:08:04Z,42.805,6.029,13.2998,4.60035,2469.876,2022-1-04T09:09:34Z
2022-01-04T07:11:07Z,42.805,6.029,13.2999,4.60029,2469.9,2022-1-04T09:12:37Z
2022-01-04T07:14:10Z,42.805,6.029,13.3003,4.60036,2469.876,2022-1-04T09:15:40Z
2022-01-04T07:17:13Z,42.805,6.029,13.3005,4.60037,2469.89,2022-1-04T09:18:43Z
2022-01-04T07:20:16Z,42.805,6.029,13.3004,4.60050,2469.876,2022-1-04T09:21:46Z
2022-01-04T07:23:19Z,42.805,6.029,13.3003,4.60032,2469.876,2022-1-04T09:24:49Z
2022-01-04T07:26:22Z,42.805,6.029,13.2997,4.60035,2469.923,2022-1-04T09:27:52Z
2022-01-04T07:29:25Z,42.805,6.029,13.3004,4.60042,2469.89,2022-1-04T09:30:56Z
2022-01-04T07:32:29Z,42.805,6.029,13.3005,4.60037,2469.9,2022-1-04T09:33:59Z
2022-01-04T07:35:32Z,42.805,6.029,13.3005,4.60034,2469.923,2022-1-04T09:37:02Z
2022-01-04T07:38:35Z,42.805,6.029,13.3000,4.60033,2469.876,2022-1-04T09:40:05Z
2022-01-04T07:41:38Z,42.805,6.029,13.3006,4.60054,2469.937,2022-1-04T09:43:08Z
2022-01-04T07:44:41Z,42.805,6.029,13.3008,4.60039,2469.9,2022-1-04T09:46:11Z
2022-01-04T07:47:44Z,42.805,6.029,13.3005,4.60035,2469.89,2022-1-04T09:49:14Z
2022-01-04T07:50:47Z,42.805,6.029,13.3000,4.60039,2469.937,2022-1-04T09:52:17Z
2022-01-04T07:53:50Z,42.805,6.029,13.3001,4.60038,2469.9,2022-1-04T09:55:20Z
2022-01-04T07:56:54Z,42.805,6.029,13.3014,4.60036,2469.9,2022-1-04T09:58:24Z
2022-01-04T07:59:57Z,42.805,6.029,13.2998,4.60038,2469.937,2022-1-04T10:01:27Z
2022-01-04T08:03:00Z,42.805,6.029,13.3009,4.60057,2469.9,2022-1-04T10:04:30Z
2022-01-04T08:06:03Z,42.805,6.029,13.3000,4.60038,2469.9,2022-1-04T10:07:33Z
2022-01-04T08:09:06Z,42.805,6.029,13.3011,4.60036,2469.9,2022-1-04T10:10:36Z
2022-01-04T08:12:09Z,42.805,6.029,13.3006,4.60035,2469.937,2022-1-04T10:13:39Z
2022-01-04T08:15:12Z,42.805,6.029,13.3001,4.60035,2469.937,2022-1-04T10:16:42Z
2022-01-04T08:18:15Z,42.805,6.029,13.3002,4.60033,2469.937,2022-1-04T10:19:45Z
2022-01-04T08:21:18Z,42.805,6.029,13.3013,4.60056,2469.9,2022-1-04T10:22:49Z
2022-01-04T08:24:22Z,42.805,6.029,13.3009,4.60037,2469.947,2022-1-04T10:25:52Z
2022-01-04T08:27:25Z,42.805,6.029,13.3000,4.60039,2469.96,2022-1-04T10:28:55Z
2022-01-04T08:30:28Z,42.805,6.029,13.3004,4.60032,2469.96,2022-1-04T10:31:58Z
2022-01-04T08:33:31Z,42.805,6.029,13.3006,4.60037,2469.937,2022-1-04T10:35:01Z
2022-01-04T08:36:34Z,42.805,6.029,13.3004,4.60040,2469.9,2022-1-04T10:38:04Z
2022-01-04T08:39:37Z,42.805,6.029,13.3000,4.60033,2469.937,2022-1-04T10:41:07Z
2022-01-04T08:42:40Z,42.805,6.029,13.3000,4.60034,2469.947,2022-1-04T10:44:10Z
2022-01-04T08:45:43Z,42.805,6.029,13.3006,4.60039,2469.937,2022-1-04T10:47:14Z
2022-01-04T08:48:47Z,42.805,6.029,13.3015,4.60062,2469.914,2022-1-04T10:50:17Z
2022-01-04T08:51:50Z,42.805,6.029,13.3002,4.60050,2469.984,2022-1-04T10:53:20Z
2022-01-04T08:54:53Z,42.805,6.029,13.3006,4.60052,2469.937,2022-1-04T10:56:23Z
2022-01-04T08:57:56Z,42.805,6.029,13.3005,4.60040,2469.937,2022-1-04T10:59:26Z
2022-01-04T09:00:59Z,42.805,6.029,13.3006,4.60041,2469.947,2022-1-04T11:02:29Z
2022-01-04T09:04:02Z,42.805,6.029,13.3009,4.60043,2469.937,2022-1-04T11:05:32Z
2022-01-04T09:07:05Z,42.805,6.029,13.3006,4.60046,2469.937,2022-1-04T11:08:35Z
2022-01-04T09:10:08Z,42.805,6.029,13.3003,4.60041,2469.947,2022-1-04T11:11:39Z
2022-01-04T09:13:12Z,42.805,6.029,13.3009,4.60046,2469.947,2022-1-04T11:14:42Z
2022-01-04T09:16:15Z,42.805,6.029,13.3006,4.60042,2469.947,2022-1-04T11:17:45Z
2022-01-04T09:19:18Z,42.805,6.029,13.2998,4.60035,2469.937,2022-1-04T11:20:48Z
2022-01-04T09:22:21Z,42.805,6.029,13.3002,4.60038,2469.923,2022-1-04T11:23:51Z
2022-01-04T09:25:24Z,42.805,6.029,13.3006,4.60044,2469.947,2022-1-04T11:26:54Z
2022-01-04T09:28:27Z,42.805,6.029,13.3000,4.60038,2469.9,2022-1-04T11:29:57Z
2022-01-04T09:31:30Z,42.805,6.029,13.3007,4.60038,2469.923,2022-1-04T11:33:00Z
2022-01-04T09:34:33Z,42.805,6.029,13.3004,4.60034,2469.947,2022-1-04T11:36:04Z
2022-01-04T09:37:37Z,42.805,6.029,13.3006,4.60054,2469.937,2022-1-04T11:39:07Z
2022-01-04T09:40:40Z,42.805,6.029,13.3003,4.60040,2469.947,2022-1-04T11:42:10Z
2022-01-04T09:43:43Z,42.805,6.029,13.3004,4.60039,2469.937,2022-1-04T11:45:13Z
2022-01-04T09:46:46Z,42.805,6.029,13.3005,4.60044,2469.984,2022-1-04T11:48:16Z
2022-01-04T09:49:49Z,42.805,6.029,13.3004,4.60040,2469.947,2022-1-04T11:51:19Z
2022-01-04T09:52:52Z,42.805,6.029,13.2998,4.60044,2469.947,2022-1-04T11:54:22Z
2022-01-04T09:55:55Z,42.805,6.029,13.3004,4.60041,2469.914,2022-1-04T11:57:25Z
2022-01-04T09:58:58Z,42.805,6.029,13.3009,4.60040,2469.96,2022-1-04T12:00:29Z
2022-01-04T10:02:02Z,42.805,6.029,13.3004,4.60046,2469.914,2022-1-04T12:03:32Z
2022-01-04T10:05:05Z,42.805,6.029,13.3006,4.60071,2469.984,2022-1-04T12:06:35Z
2022-01-04T10:08:08Z,42.805,6.029,13.3005,4.60035,2469.923,2022-1-04T12:09:38Z
2022-01-04T10:11:11Z,42.805,6.029,13.3003,4.60041,2469.947,2022-1-04T12:12:41Z
2022-01-04T10:14:14Z,42.805,6.029,13.3005,4.60033,2469.96,2022-1-04T12:15:44Z
2022-01-04T10:17:17Z,42.805,6.029,13.3010,4.60044,2469.923,2022-1-04T12:18:47Z
2022-01-04T10:20:20Z,42.805,6.029,13.3003,4.60032,2469.923,2022-1-04T12:21:50Z
2022-01-04T10:23:23Z,42.805,6.029,13.3011,4.60049,2469.923,2022-1-04T12:24:54Z
2022-01-04T10:26:27Z,42.805,6.029,13.3006,4.60044,2469.914,2022-1-04T12:27:57Z
2022-01-04T10:29:30Z,42.805,6.029,13.3000,4.60040,2469.937,2022-1-04T12:31:00Z
2022-01-04T10:32:33Z,42.805,6.029,13.3004,4.60049,2469.923,2022-1-04T12:34:03Z
2022-01-04T10:35:36Z,42.805,6.029,13.3001,4.60038,2469.914,2022-1-04T12:37:06Z
2022-01-04T10:38:39Z,42.805,6.029,13.3002,4.60040,2469.923,2022-1-04T12:40:09Z
2022-01-04T10:41:42Z,42.805,6.029,13.3000,4.60044,2469.923,2022-1-04T12:43:12Z
2022-01-04T10:44:45Z,42.805,6.029,13.3004,4.60038,2469.937,2022-1-04T12:46:15Z
2022-01-04T10:47:48Z,42.805,6.029,13.2998,4.60061,2469.937,2022-1-04T12:49:18Z
2022-01-04T10:50:52Z,42.805,6.029,13.3011,4.60055,2469.947,2022-1-04T12:52:22Z
2022-01-04T10:53:55Z,42.805,6.029,13.3004,4.60044,2469.9,2022-1-04T12:55:25Z
2022-01-04T10:56:58Z,42.805,6.029,13.3000,4.60037,2469.96,2022-1-04T12:58:28Z
2022-01-04T11:00:01Z,42.805,6.029,13.3015,4.60037,2469.9,2022-1-04T13:01:31Z
2022-01-04T11:03:04Z,42.805,6.029,13.3008,4.60039,2469.9,2022-1-04T13:04:34Z
2022-01-04T11:06:07Z,42.805,6.029,13.3012,4.60051,2469.876,2022-1-04T13:07:37Z
2022-01-04T11:09:10Z,42.805,6.029,13.3005,4.60034,2469.914,2022-1-04T13:10:40Z
2022-01-04T11:12:13Z,42.805,6.029,13.3005,4.60042,2469.863,2022-1-04T13:13:44Z
2022-01-04T11:15:17Z,42.805,6.029,13.3004,4.60036,2469.923,2022-1-04T13:16:47Z
2022-01-04T11:18:20Z,42.805,6.029,13.3002,4.60044,2469.933,2022-1-04T13:19:50Z
2022-01-04T11:21:23Z,42.805,6.029,13.3003,4.60039,2469.937,2022-1-04T13:22:53Z
2022-01-04T11:24:26Z,42.805,6.029,13.3000,4.60030,2469.914,2022-1-04T13:25:56Z
2022-01-04T11:27:29Z,42.805,6.029,13.3009,4.60047,2469.914,2022-1-04T13:28:59Z
2022-01-04T11:30:32Z,42.805,6.029,13.3007,4.60046,2469.914,2022-1-04T13:32:02Z
2022-01-04T11:33:35Z,42.805,6.029,13.3007,4.60039,2469.914,2022-1-04T13:35:05Z
2022-01-04T11:36:38Z,42.805,6.029,13.3005,4.60043,2469.853,2022-1-04T13:38:08Z
2022-01-04T11:39:41Z,42.805,6.029,13.3003,4.60033,2469.9,2022-1-04T13:41:12Z
2022-01-04T11:42:45Z,42.805,6.029,13.3004,4.60059,2469.9,2022-1-04T13:44:15Z
2022-01-04T11:45:48Z,42.805,6.029,13.3006,4.60047,2469.9,2022-1-04T13:47:18Z
2022-01-04T11:48:51Z,42.805,6.029,13.3008,4.60049,2469.9,2022-1-04T13:50:21Z
2022-01-04T11:51:54Z,42.805,6.029,13.3000,4.60044,2469.876,2022-1-04T13:53:24Z
2022-01-04T11:54:57Z,42.805,6.029,13.3000,4.60033,2469.876,2022-1-04T13:56:27Z
2022-01-04T11:58:00Z,42.805,6.029,13.3006,4.60062,2469.9,2022-1-04T13:59:30Z
2022-01-04T12:01:03Z,42.805,6.029,13.2998,4.60039,2469.89,2022-1-04T14:02:33Z
2022-01-04T12:04:06Z,42.805,6.029,13.3003,4.60036,2469.876,2022-1-04T14:05:37Z
2022-01-04T12:07:10Z,42.805,6.029,13.3008,4.60051,2469.886,2022-1-04T14:08:40Z
2022-01-04T12:10:13Z,42.805,6.029,13.3002,4.60054,2469.89,2022-1-04T14:11:43Z
2022-01-04T12:13:16Z,42.805,6.029,13.3006,4.60052,2469.914,2022-1-04T14:14:46Z
2022-01-04T12:16:19Z,42.805,6.029,13.2998,4.60040,2469.876,2022-1-04T14:17:49Z
2022-01-04T12:19:22Z,42.805,6.029,13.3006,4.60031,2469.876,2022-1-04T14:20:52Z
2022-01-04T12:22:25Z,42.805,6.029,13.3004,4.60060,2469.89,2022-1-04T14:23:55Z
2022-01-04T12:25:28Z,42.805,6.029,13.3016,4.60056,2469.863,2022-1-04T14:26:58Z
2022-01-04T12:28:31Z,42.805,6.029,13.3004,4.60036,2469.853,2022-1-04T14:30:02Z
2022-01-04T12:31:35Z,42.805,6.029,13.2999,4.60032,2469.844,2022-1-04T14:33:05Z
2022-01-04T12:34:38Z,42.805,6.029,13.3000,4.60035,2469.853,2022-1-04T14:36:08Z
2022-01-04T12:37:41Z,42.805,6.029,13.3001,4.60036,2469.853,2022-1-04T14:39:11Z
2022-01-04T12:40:44Z,42.805,6.029,13.3010,4.60039,2469.876,2022-1-04T14:42:14Z
2022-01-04T12:43:47Z,42.805,6.029,13.3014,4.60052,2469.867,2022-1-04T14:45:17Z
2022-01-04T12:46:50Z,42.805,6.029,13.3000,4.60047,2469.83,2022-1-04T14:48:20Z
2022-01-04T12:49:53Z,42.805,6.029,13.3009,4.60049,2469.867,2022-1-04T14:51:23Z
2022-01-04T12:52:56Z,42.805,6.029,13.3000,4.60044,2469.876,2022-1-04T14:54:27Z
2022-01-04T12:56:00Z,42.805,6.029,13.3001,4.60039,2469.853,2022-1-04T14:57:30Z
2022-01-04T12:59:03Z,42.805,6.029,13.3005,4.60048,2469.853,2022-1-04T15:00:33Z
2022-01-04T13:02:06Z,42.805,6.029,13.3000,4.60044,2469.853,2022-1-04T15:03:36Z
2022-01-04T13:05:09Z,42.805,6.029,13.3009,4.60036,2469.876,2022-1-04T15:06:39Z
2022-01-04T13:08:12Z,42.805,6.029,13.2999,4.60031,2469.876,2022-1-04T15:09:42Z
2022-01-04T13:11:15Z,42.805,6.029,13.3006,4.60049,2469.853,2022-1-04T15:12:45Z
2022-01-04T13:14:18Z,42.805,6.029,13.2999,4.60044,2469.83,2022-1-04T15:15:48Z
2022-01-04T13:17:21Z,42.805,6.029,13.3003,4.60034,2469.853,2022-1-04T15:18:52Z
2022-01-04T13:20:25Z,42.805,6.029,13.3000,4.60037,2469.83,2022-1-04T15:21:55Z
2022-01-04T13:23:28Z,42.805,6.029,13.2998,4.60043,2469.821,2022-1-04T15:24:58Z
2022-01-04T13:26:31Z,42.805,6.029,13.3004,4.60049,2469.876,2022-1-04T15:28:01Z
2022-01-04T13:29:34Z,42.805,6.029,13.3008,4.60040,2469.844,2022-1-04T15:31:04Z
2022-01-04T13:32:37Z,42.805,6.029,13.3002,4.60033,2469.844,2022-1-04T15:34:07Z
2022-01-04T13:35:40Z,42.805,6.029,13.2998,4.60040,2469.821,2022-1-04T15:37:10Z
2022-01-04T13:38:43Z,42.805,6.029,13.2999,4.60039,2469.83,2022-1-04T15:40:13Z
2022-01-04T13:41:46Z,42.805,6.029,13.3000,4.60032,2469.867,2022-1-04T15:43:17Z
2022-01-04T13:44:50Z,42.805,6.029,13.3001,4.60030,2469.844,2022-1-04T15:46:20Z
2022-01-04T13:47:53Z,42.805,6.029,13.2998,4.60029,2469.844,2022-1-04T15:49:23Z
2022-01-04T13:50:56Z,42.805,6.029,13.3003,4.60032,2469.83,2022-1-04T15:52:26Z
2022-01-04T13:53:59Z,42.805,6.029,13.3005,4.60042,2469.806,2022-1-04T15:55:29Z
2022-01-04T13:57:02Z,42.805,6.029,13.3000,4.60033,2469.83,2022-1-04T15:58:32Z
2022-01-04T14:00:05Z,42.805,6.029,13.3004,4.60036,2469.853,2022-1-04T16:01:35Z
2022-01-04T14:03:08Z,42.805,6.029,13.3002,4.60041,2469.806,2022-1-04T16:04:38Z
2022-01-04T14:06:11Z,42.805,6.029,13.3000,4.60029,2469.844,2022-1-04T16:07:42Z
2022-01-04T14:09:15Z,42.805,6.029,13.3003,4.60034,2469.876,2022-1-04T16:10:45Z
2022-01-04T14:12:18Z,42.805,6.029,13.3000,4.60032,2469.806,2022-1-04T16:13:48Z
2022-01-04T14:15:21Z,42.805,6.029,13.3000,4.60035,2469.83,2022-1-04T16:16:51Z
2022-01-04T14:18:24Z,42.805,6.029,13.3000,4.60045,2469.806,2022-1-04T16:19:54Z
2022-01-04T14:21:27Z,42.805,6.029,13.3010,4.60039,2469.806,2022-1-04T16:22:57Z
2022-01-04T14:24:30Z,42.805,6.029,13.3006,4.60054,2469.83,2022-1-04T16:26:00Z
2022-01-04T14:27:33Z,42.805,6.029,13.3004,4.60046,2469.821,2022-1-04T16:29:03Z
2022-01-04T14:30:36Z,42.805,6.029,13.3015,4.60064,2469.83,2022-1-04T16:32:07Z
2022-01-04T14:33:40Z,42.805,6.029,13.3000,4.60038,2469.821,2022-1-04T16:35:10Z
2022-01-04T14:36:43Z,42.805,6.029,13.3002,4.60037,2469.806,2022-1-04T16:38:13Z
2022-01-04T14:39:46Z,42.805,6.029,13.3008,4.60060,2469.821,2022-1-04T16:41:16Z
2022-01-04T14:42:49Z,42.805,6.029,13.3002,4.60044,2469.83,2022-1-04T16:44:19Z
2022-01-04T14:45:52Z,42.805,6.029,13.3007,4.60041,2469.844,2022-1-04T16:47:22Z
2022-01-04T14:48:55Z,42.805,6.029,13.3004,4.60035,2469.83,2022-1-04T16:50:25Z
2022-01-04T14:51:58Z,42.805,6.029,13.3004,4.60057,2469.853,2022-1-04T16:53:28Z
2022-01-04T14:55:01Z,42.805,6.029,13.3014,4.60047,2469.806,2022-1-04T16:56:32Z
2022-01-04T14:58:05Z,42.805,6.029,13.3005,4.60044,2469.821,2022-1-04T16:59:35Z
2022-01-04T15:01:08Z,42.805,6.029,13.3009,4.60052,2469.83,2022-1-04T17:02:38Z
2022-01-04T15:04:11Z,42.805,6.029,13.3004,4.60042,2469.821,2022-1-04T17:05:41Z
2022-01-04T15:07:14Z,42.805,6.029,13.3009,4.60052,2469.821,2022-1-04T17:08:44Z
2022-01-04T15:10:17Z,42.805,6.029,13.3014,4.60062,2469.853,2022-1-04T17:11:47Z
2022-01-04T15:13:20Z,42.805,6.029,13.3003,4.60044,2469.806,2022-1-04T17:14:50Z